This demonstration page uses our WeatherBlox Daily Observations layout. Learn more.

Left ArrowRight Arrow

Hourly Observations for September 18, 2022

Temp ( °F °C ) Dew Point ( °F °C ) Humidity (%) Winds ( mph kmh ) Pressure ( in mb ) Visibility ( mi km ) Precip ( " mm )
12:53 am 00:53 Cloudy with Smoke 64 17.8 53 11.7 67 67 WNW 5 7 29.60 1002 10 16 0.00 0.00
1:53 am 01:53 Cloudy with Smoke 64 17.8 54 12.2 70 70 Calm 29.59 1002 10 16 0.00 0.00
2:53 am 02:53 Cloudy with Smoke 65 18.3 48 8.9 54 54 S 8 13 29.60 1003 10 16 0.00 0.00
3:53 am 03:53 Cloudy with Smoke 64 17.8 46 7.8 52 52 S 10 17 29.62 1003 10 16 0.00 0.00
4:53 am 04:53 Cloudy with Light Rain 60 15.6 52 11.1 75 75 S 12 19 29.66 1004 9 14 0.01 0.25
5:53 am 05:53 Cloudy with Smoke 59 15 53 11.7 81 81 S 7 11 29.66 1004 10 16 0.04 1.02
6:53 am 06:53 Cloudy with Light Rain 58 14.4 54 12.2 87 87 N 5 7 29.65 1004 10 16 0.04 1.02
7:53 am 07:53 Cloudy with Light Rain 58 14.4 55 12.8 90 90 N 8 13 29.65 1004 5 8 0.03 0.76
8:53 am 08:53 Cloudy with Smoke 59 15 55 12.8 87 87 N 6 9 29.67 1005 10 16 0.01 0.13
9:53 am 09:53 Cloudy with Smoke 61 16.1 54 12.2 78 78 NW 6 9 29.66 1004 10 16 0.00 0.00
10:53 am 10:53 Partly Cloudy with Smoke 66 18.9 54 12.2 65 65 VRB 5 7 29.67 1005 10 16 0.00 0.00
11:53 am 11:53 Cloudy with Smoke 67 19.4 51 10.6 57 57 VRB 3 6 29.67 1005 10 16 0.00 0.00
12:53 pm 12:53 Mostly Cloudy with Smoke 70 21.1 49 9.4 47 47 undefined N/A 29.65 1004 10 16 0.00 0.00
1:53 pm 13:53 Cloudy with Smoke 70 21.1 49 9.4 47 47 S 9 15 29.66 1005 10 16 0.00 0.00
2:53 pm 14:53 Cloudy with Light Rain 65 18.3 54 12.2 68 68 SSE 15 24 29.69 1006 10 16 0.01 0.13
3:53 pm 15:53 Cloudy with Smoke 62 16.7 56 13.3 80 80 Calm 29.69 1006 10 16 0.03 0.76
4:53 pm 16:53 Mostly Cloudy with Smoke 63 17.2 56 13.3 78 78 NNE 5 7 29.70 1006 10 16 0.00 0.00
5:53 pm 17:53 Cloudy with Smoke 62 16.7 57 13.9 84 84 N 10 17 29.69 1005 10 16 0.01 0.25
6:53 pm 18:53 Cloudy with Smoke 62 16.7 57 13.9 84 84 N 5 7 29.69 1005 10 16 0.01 0.25
7:53 pm 19:53 Cloudy with Rain 61 16.1 57 13.9 87 87 Calm 29.71 1006 3 5 0.07 1.78
8:53 pm 20:53 Cloudy with Light Rain 61 16.1 57 13.9 87 87 Calm 29.71 1006 7 11 0.03 0.76
9:53 pm 21:53 Cloudy with Light Rain 61 16.1 57 13.9 87 87 N 6 9 29.73 1007 7 11 0.06 1.52
10:53 pm 22:53 Cloudy with Rain 60 15.6 57 13.9 90 90 WNW 6 9 29.75 1008 3 5 0.06 1.52
11:01 pm 23:01 Cloudy with Heavy Rain 60 15.6 58 14.4 93 93 Calm 29.77 1008 2 3 0.05 1.27
11:18 pm 23:18 Cloudy with Rain 60 15.6 58 14.4 93 93 N 7 11 29.76 1008 4 6 0.17 4.32
11:42 pm 23:42 Cloudy with Rain 61 16.1 56 13.3 83 83 VRB 3 6 29.76 1008 6 10 0.22 5.59
11:53 pm 23:53 Cloudy with Smoke 61 16.1 57 13.9 87 87 ENE 7 11 29.75 1008 10 16 0.23 5.84

Powered by Vaisala Xweather